SCP
0 0 0 0 0 0 0 0 0 0 0 0 0 0 0 0 0 0 0 0 0 0 0 0 0 0 0 0 0 0 0 0 0 0 0 0 0 0 0 0 0 0 0
0 0 0 0 0 0 0 0 0 0 0 0 0 0 0 0 0 0 0 0 0 0 0 0 0 0 0 0 0 0 0 0 0 0 0 0 0 0 0 0 0 0 0
1 0 0 0 0 0 0 0 0 0 0 0 0 0 0 0 0 0 0 0 0 0 0 0 0 0 0 0 0 0 0 0 0 0 0 0 0 0 0 0 0 0 0
1 1 1 1 1 1 1 1 1 0 0 0 0 0 0 0 0 0 0 0 0 0 0 0 0 0 0 0 0 0 0 0 0 0 0 0 0 0 0 0 0 0 0
1 1 1 1 1 1 1 1 1 1 0 0 0 0 0 0 0 0 0 0 0 0 0 0 0 0 0 0 0 0 0 0 0 0 0 0 0 0 0 0 0 0 0
0 0 1 1 1 1 1 1 1 1 1 0 0 0 0 0 0 0 0 0 0 0 0 0 0 0 0 0 0 0 0 0 0 0 0 0 0 0 0 0 0 0 0
0 0 1 1 1 1 1 1 1 1 1 0 0 0 0 0 0 0 0 0 0 0 0 0 0 0 0 0 0 0 0 0 0 0 0 0 0 0 0 0 0 0 0
0 0 1 1 1 1 1 1 1 1 1 1 0 0 0 0 0 0 0 0 0 0 0 0 0 0 0 0 0 0 0 0 0 0 0 0 0 0 0 0 0 0 0
0 0 1 1 1 1 1 1 1 1 1 1 1 0 0 0 0 0 0 0 0 0 0 0 0 0 0 0 0 0 0 0 0 0 0 0 0 0 0 0 0 0 0
0 0 1 1 1 1 1 1 1 1 1 1 1 1 0 0 0 0 0 0 0 0 0 0 0 0 0 0 0 0 0 0 0 0 0 0 0 0 0 0 0 0 0
0 1 1 1 1 1 1 1 1 1 1 1 1 1 1 1 1 0 0 0 0 0 0 0 0 0 0 0 0 0 0 0 0 0 0 0 0 0 0 0 0 0 0
1 1 1 1 1 1 1 1 1 1 1 1 1 1 1 1 1 1 0 0 0 0 0 0 0 0 0 0 0 0 0 0 0 0 0 0 0 0 0 0 0 0 0
1 1 1 1 1 1 1 1 1 1 1 1 1 1 1 1 1 1 0 0 0 0 0 0 0 0 0 0 0 0 0 0 0 0 0 0 0 0 0 0 0 0 0
1 1 1 1 1 1 1 1 1 1 1 1 1 1 1 1 1 0 0 0 0 0 0 0 0 0 0 0 0 0 0 0 0 0 0 0 0 0 0 0 0 0 0
1 1 1 1 1 1 1 1 1 1 1 1 1 1 1 1 1 1 0 0 0 0 0 0 0 0 0 0 0 0 0 0 0 0 0 0 0 0 0 0 0 0 0
1 1 1 1 1 1 1 1 1 1 1 1 1 1 1 1 1 1 1 1 0 0 0 0 0 0 0 0 0 0 0 0 0 0 0 0 0 0 0 0 0 0 0
1 1 1 1 1 1 1 1 1 1 1 1 1 1 1 1 1 1 1 1 0 0 0 0 0 0 0 0 0 0 0 0 0 0 0 0 0 0 0 0 0 0 0
1 1 1 1 1 1 1 1 1 1 1 1 1 1 1 1 1 1 1 1 1 0 0 0 0 0 0 0 0 0 0 0 0 0 0 0 0 0 0 0 0 0 0
1 1 1 1 1 1 1 1 1 1 1 1 1 1 1 1 1 1 1 1 1 1 0 0 0 0 0 0 0 0 0 0 0 0 0 0 0 0 0 0 0 0 0
1 1 1 1 1 1 1 1 1 1 1 1 1 1 1 1 1 1 1 1 1 1 1 0 0 0 0 0 0 0 0 0 0 0 0 0 0 0 0 0 0 0 0
1 1 1 1 1 1 1 1 1 1 1 1 1 1 1 1 1 1 1 1 1 1 1 0 0 0 0 0 0 0 0 0 0 0 0 0 0 0 0 0 0 0 0
1 1 1 1 1 1 1 1 1 1 1 1 1 1 1 1 1 1 1 1 1 1 0 0 0 0 0 0 0 0 0 0 0 0 0 0 0 0 0 0 0 0 0
1 1 1 1 1 1 1 1 1 1 1 1 1 1 1 1 1 1 1 1 1 1 0 0 0 0 0 0 0 0 0 0 0 0 0 0 0 0 0 0 0 0 0
1 1 1 1 1 1 1 1 1 1 1 1 1 1 1 1 1 1 1 1 1 1 1 0 0 0 0 0 0 0 0 0 0 0 0 0 0 0 0 0 0 0 0
1 1 1 1 1 1 0 0 0 0 0 1 1 1 1 1 1 1 1 1 0 0 0 0 0 0 0 0 0 0 0 0 0 0 0 0 0 0 0 0 0 0 0
1 1 1 1 1 0 0 0 0 0 0 0 0 1 1 1 1 1 1 0 0 0 0 0 0 0 0 0 0 0 0 0 0 0 0 0 0 0 0 0 0 0 0
Wind_Speed
10 10 11 10 8 7 7 6 6 4 4 2 2 2 1 1 1 1 2 3 3 3 3 3 2 3 2 2 2 2 2 1 1 2 1 2 1 1 1 1 1 2 3
10 10 10 10 9 9 7 7 6 6 5 3 3 2 2 2 1 1 1 2 3 3 3 3 2 2 2 2 2 2 1 0 1 2 2 1 3 2 1 0 1 2 1
16 14 13 11 11 10 9 8 7 6 5 4 3 2 2 1 1 1 1 1 2 3 3 4 3 3 2 2 2 2 3 1 1 1 3 3 2 2 2 1 0 1 1
14 14 13 12 12 11 10 8 7 6 5 5 5 5 4 3 3 2 1 1 2 2 3 3 3 3 2 2 2 2 2 3 1 0 1 2 3 2 1 2 1 0 1
16 16 16 15 13 11 10 8 7 6 5 6 6 5 4 3 2 2 2 1 1 2 3 3 3 3 2 2 2 2 2 2 2 1 1 1 1 1 2 1 2 1 1
14 13 13 12 11 10 9 9 8 7 6 6 6 6 5 4 4 3 3 2 1 1 2 3 3 3 2 2 2 2 2 2 2 1 1 2 2 2 2 2 1 1 2
12 11 12 12 12 12 11 10 10 8 7 7 6 6 6 6 6 5 4 3 2 1 2 2 2 2 2 2 2 2 2 2 2 2 1 1 2 2 2 2 1 1 2
11 12 12 13 13 13 12 11 10 8 8 7 6 5 5 4 3 4 4 4 3 3 3 3 3 2 2 2 2 2 1 1 1 1 1 1 1 1 2 2 2 1 1
10 11 11 11 11 11 11 12 11 9 8 8 7 5 5 5 4 4 3 3 2 3 3 3 3 2 2 2 3 2 2 1 1 1 1 1 1 1 1 2 3 3 1
9 10 11 11 10 10 9 10 10 10 9 8 7 6 5 5 5 4 4 4 3 3 3 2 3 2 2 2 2 1 1 1 1 1 1 1 1 0 0 1 1 2 3
10 10 11 11 10 9 9 9 9 8 7 7 6 6 5 5 5 4 4 4 3 3 3 3 3 3 2 2 2 1 1 2 1 1 1 1 1 0 0 0 0 1 2
8 9 9 8 8 9 9 9 9 9 8 8 7 6 5 5 4 4 4 4 4 3 4 4 4 3 3 3 3 3 2 2 2 2 1 1 1 1 1 1 1 1 2
6 7 7 8 9 9 9 8 8 9 8 7 7 5 5 5 5 4 4 4 4 4 4 4 4 3 3 2 2 2 2 2 2 2 3 2 2 1 1 1 1 1 1
6 6 7 7 7 8 7 7 7 7 7 7 7 6 6 6 5 5 4 4 4 4 4 4 4 3 3 2 2 2 2 2 2 2 3 2 3 3 3 2 2 1 1
5 6 6 6 6 6 6 6 7 6 7 7 7 7 6 5 5 4 4 4 4 4 4 3 2 2 3 2 2 2 2 2 2 2 2 3 3 4 3 3 2 2 2
6 6 6 6 7 7 7 6 6 6 6 7 7 6 6 6 5 5 4 4 3 3 3 3 3 3 3 3 4 3 2 2 3 2 2 2 2 3 3 4 4 4 4
7 6 6 7 7 7 7 7 6 5 6 6 6 6 6 6 6 6 5 4 4 3 3 3 3 3 4 5 5 5 3 3 3 3 3 2 2 2 2 2 3 4 5
7 6 5 5 4 4 5 5 5 5 5 5 5 5 5 6 5 5 5 4 3 4 4 4 4 3 4 6 5 5 3 2 3 3 4 3 3 3 2 2 1 3 3
7 6 5 6 5 5 5 5 4 5 5 5 5 5 5 6 5 5 5 4 4 3 4 4 4 4 4 5 5 4 2 2 3 4 3 4 4 5 4 2 2 3 4
5 5 5 6 5 4 5 5 4 4 4 4 4 4 5 5 5 5 4 3 3 4 3 3 4 5 4 5 6 5 2 2 3 3 3 5 5 6 5 3 3 4 5
6 6 6 5 4 4 5 4 3 4 4 3 3 3 4 4 4 4 3 3 3 2 2 3 3 4 5 6 7 6 3 3 3 3 3 3 6 6 6 5 5 7 5
5 5 5 4 3 4 5 4 3 3 3 4 3 3 3 3 3 3 3 3 3 3 2 2 2 2 3 5 6 7 6 5 4 4 3 3 5 6 6 5 6 6 4
5 4 5 5 3 3 5 5 3 3 4 3 3 2 2 2 2 3 3 2 3 3 2 2 3 3 2 3 6 7 8 7 4 3 4 4 5 5 4 5 5 3 2
5 5 5 5 3 2 3 3 2 3 4 3 2 2 2 1 1 1 2 3 3 3 3 3 3 3 2 2 2 3 3 4 3 3 3 4 4 3 3 3 3 2 3
4 4 5 4 4 3 3 2 2 4 3 3 2 1 2 2 2 2 2 3 3 4 4 4 4 3 3 4 5 3 3 2 2 1 0 1 1 1 2 2 2 2 2
4 4 4 4 3 3 2 2 2 4 4 2 2 1 1 1 1 1 1 1 2 2 3 4 4 4 5 5 4 4 4 3 3 3 1 2 2 3 3 3 3 2 3
Wind_Direction
177 169 165 164 160 161 159 161 158 165 151 137 138 137 148 149 128 150 142 140 144 138 134 137 139 137 143 160 159 144 139 145 127 93 32 356 339 272 246 226 190 193 197
167 171 170 167 168 173 169 166 169 169 167 165 164 159 156 167 160 143 125 134 132 137 141 140 145 142 136 134 142 131 134 171 141 134 113 21 341 325 300 230 186 199 196
173 176 178 179 174 178 178 176 176 170 168 159 136 122 91 71 65 98 131 143 138 141 142 143 142 140 140 156 164 155 154 171 211 145 146 153 215 290 319 300 138 143 177
177 180 180 181 181 183 179 174 173 169 168 157 148 149 154 166 191 178 168 170 147 140 143 140 144 147 149 159 179 166 161 148 166 249 183 167 161 157 307 329 338 209 202
183 183 184 184 184 180 177 174 170 173 171 163 162 161 164 174 169 154 151 168 172 152 152 147 144 151 159 166 161 147 144 148 159 169 169 140 124 134 147 269 309 325 276
184 186 185 179 180 177 175 172 171 179 177 170 166 166 166 163 155 163 169 179 181 173 165 150 151 162 165 168 170 166 153 162 157 157 155 154 157 183 167 198 244 265 277
183 183 182 180 180 178 177 175 174 180 181 176 176 175 172 169 172 177 179 178 179 184 197 169 166 172 176 172 166 162 169 165 159 175 187 180 189 171 157 157 201 256 284
182 185 184 183 182 180 178 175 179 181 181 180 182 176 169 169 175 176 176 183 189 190 183 174 173 177 173 167 161 159 178 154 175 187 175 176 219 173 165 168 162 191 306
178 179 178 177 176 178 180 179 178 179 182 182 177 176 174 170 173 175 173 176 182 184 176 173 173 177 169 166 155 160 186 158 171 195 176 184 237 195 191 170 163 164 207
175 177 177 176 178 179 181 179 180 182 181 180 182 181 184 181 177 171 176 181 184 177 163 164 170 166 154 149 142 150 173 150 190 183 149 200 249 235 209 186 190 170 175
178 178 175 176 173 169 172 177 179 177 176 179 182 179 183 184 175 175 183 183 178 168 168 166 153 151 150 146 148 167 177 176 194 183 162 201 206 207 219 191 198 188 165
174 168 163 162 162 166 174 181 182 180 182 179 176 178 177 175 176 180 182 175 170 166 166 157 149 161 158 156 164 186 201 186 191 202 191 224 209 219 220 194 208 216 196
157 156 156 162 165 168 173 178 181 182 179 172 169 167 171 179 184 182 179 170 165 161 160 153 158 165 161 164 180 189 199 199 203 201 197 213 183 227 235 216 216 227 215
143 145 152 162 166 168 168 168 170 172 167 165 167 170 178 185 185 173 168 167 163 160 162 165 164 163 163 178 195 194 197 210 224 220 208 204 192 209 214 217 218 211 204
147 153 157 160 154 153 157 163 167 164 166 167 172 179 181 179 176 170 166 165 166 171 168 162 162 168 178 191 182 197 202 207 231 244 229 221 204 204 207 206 205 189 188
161 154 155 156 158 158 157 159 167 167 166 173 181 178 174 173 175 175 168 166 171 173 160 171 178 193 207 196 187 180 201 204 207 230 253 247 223 230 231 223 213 195 190
167 161 162 167 165 163 159 160 166 162 167 177 175 173 173 175 177 173 168 179 183 172 174 196 193 203 210 201 194 192 191 202 212 220 232 248 233 225 231 241 246 243 230
162 165 156 149 151 146 138 147 152 156 163 169 169 170 171 172 171 168 173 181 178 178 189 201 201 204 220 207 201 195 196 210 228 229 222 222 237 226 209 217 256 262 252
156 155 149 140 132 135 139 130 142 149 153 160 165 170 169 169 169 175 183 185 179 186 195 197 200 207 231 220 208 188 187 220 248 247 232 219 225 231 204 190 242 274 281
138 135 129 121 124 134 132 128 144 148 158 166 167 167 164 164 169 179 184 182 181 196 200 211 211 208 216 216 204 185 183 214 242 260 253 237 233 234 214 204 217 248 261
127 128 125 127 134 136 127 137 150 170 172 154 143 151 161 167 171 174 175 176 181 187 204 222 229 217 219 221 210 195 191 210 226 244 257 258 250 242 234 220 214 231 238
126 128 130 129 126 133 133 140 170 176 148 142 151 166 177 185 177 173 184 177 173 188 215 235 250 244 234 227 223 213 217 212 211 231 240 249 257 255 248 235 235 238 229
125 124 127 120 113 121 135 148 177 156 145 146 162 177 185 193 187 180 188 182 178 190 208 214 231 250 251 244 235 225 227 225 218 234 245 258 261 260 255 254 253 234 211
119 120 120 117 113 115 127 157 160 141 138 153 173 167 169 187 210 205 194 192 200 203 209 215 228 240 248 249 235 224 229 232 236 258 272 269 262 258 266 274 265 232 220
125 127 131 132 130 120 123 125 135 136 141 159 172 172 188 197 209 222 217 208 215 202 200 215 213 209 234 241 217 197 207 208 213 191 357 332 319 299 298 295 278 263 254
114 116 115 113 118 125 123 110 115 132 138 149 167 178 190 199 195 217 292 284 223 237 220 221 213 224 229 227 219 215 209 201 171 147 207 243 245 249 254 260 270 264 252